This is the latest recevied weather packets stored in our database for station/object XQ6AK-15. If no packets are shown the sender has not sent any weather packets the latest 10 day(s).
| Time | Temp. | Humidity | Pressure | Rain* | Wind** | Luminosity | Snow |
|---|---|---|---|---|---|---|---|
| 1787529325 | 6.67° C | 98% | 1013.7 hPa | 0 mm | - | 0 W/m² | - |
| 1787529020 | 6.67° C | 98% | 1013.8 hPa | 0 mm | - | 0 W/m² | - |
| 1787528717 | 6.67° C | 98% | 1013.5 hPa | 0 mm | - | 0 W/m² | - |
| 1787528416 | 6.67° C | 97% | 1013.8 hPa | 0 mm | - | 0 W/m² | - |
| 1787528112 | 6.67° C | 97% | 1013.8 hPa | 0 mm | - | 0 W/m² | - |
| 1787527809 | 7.22° C | 97% | 1013.8 hPa | 0 mm | - | 0 W/m² | - |
| 1787527504 | 7.22° C | 97% | 1013.8 hPa | 0 mm | - | 0 W/m² | - |
| 1787527199 | 7.22° C | 96% | 1013.7 hPa | 0 mm | - | 0 W/m² | - |
| 1787526895 | 7.78° C | 95% | 1013.8 hPa | 0 mm | - | 0 W/m² | - |
| 1787526590 | 7.78° C | 94% | 1013.7 hPa | 0 mm | - | 0 W/m² | - |
| 1787526287 | 8.33° C | 94% | 1013.6 hPa | 0 mm | - | 0 W/m² | - |
| 1787525983 | 8.33° C | 93% | 1013.4 hPa | 0 mm | - | 0 W/m² | - |
| 1787525679 | 8.33° C | 92% | 1013.5 hPa | 0 mm | - | 0 W/m² | - |
| 1787525378 | 8.89° C | 91% | 1013.4 hPa | 0 mm | - | 0 W/m² | - |
| 1787525075 | 9.44° C | 90% | 1013.4 hPa | 0 mm | - | 0 W/m² | - |
| 1787524774 | 9.44° C | 89% | 1013.3 hPa | 0 mm | - | 0 W/m² | - |
| 1787524471 | 10° C | 88% | 1013.3 hPa | 0 mm | - | 0 W/m² | - |
| 1787524165 | 10° C | 86% | 1013.2 hPa | 0 mm | - | 0 W/m² | - |
| 1787523860 | 10.56° C | 86% | 1013 hPa | 0 mm | - | 0 W/m² | - |
| 1787523555 | 10.56° C | 83% | 1013.2 hPa | 0 mm | - | 2 W/m² | - |
| 1787523250 | 11.11° C | 83% | 1013.1 hPa | 0 mm | - | 5 W/m² | - |
| 1787522946 | 11.67° C | 82% | 1013 hPa | 0 mm | - | 8 W/m² | - |
| 1787522642 | 12.22° C | 79% | 1013.1 hPa | 0 mm | - | 11 W/m² | - |
| 1787522336 | 12.78° C | 78% | 1012.8 hPa | 0 mm | - | 13 W/m² | - |
| 1787522032 | 13.33° C | 75% | 1012.7 hPa | 0 mm | - | 16 W/m² | - |
* Rain latest hour (hover to see other rain measurements)
** Current wind speed in m/s (hover to see current wind gust speed)